Station VCVA2 - 9464212 - Village Cove, St. Paul Island, AK Image indicating link to RSS feed of recent meteorological observations for station VCVA2


Conditions at VCVA2 as of
(9:30 pm HAST on 04/22/2024)
0730 GMT on 04/23/2024:
     

Click on the graph icon in the table below to see a time series plot of the last five days of that observation.

5-day plot - Atmospheric Pressure Atmospheric Pressure (PRES):29.29 in
5-day plot - Water Temperature Water Temperature (WTMP): 32.0 °F
NOS Water Level Observation Network Water Level
Previous observations
TIME
(HAST)
5-day plot - Wind Direction
WDIR
 
5-day plot - Wind Speed
WSPD
kts
5-day plot - Wind Gust
GST
kts
5-day plot - Wave Height
WVHT
ft
5-day plot - Dominant Wave Period
DPD
sec
5-day plot - Average Wave Period
APD
sec
5-day plot - Mean Wave Direction
MWD
 
5-day plot - Atmospheric Pressure
PRES
in
5-day plot - Pressure Tendency
PTDY
in
5-day plot - Air Temperature
ATMP
°F
5-day plot - Water Temperature
WTMP
°F
5-day plot - Dew Point
DEWP
°F
5-day plot - Salinity
SAL
psu
5-day plot - Visibility
VIS
nmi
5-day plot - Tide (above MLLW)
TIDE
ft
2024-04-22 09:24 pm-------29.28-- 32.0----
2024-04-22 09:18 pm-------29.28-- 32.0----
2024-04-22 09:12 pm-------29.27-- 32.0----
2024-04-22 09:06 pm-------29.27-- 32.0----
2024-04-22 09:00 pm-------29.26+0.03- 32.2----
2024-04-22 08:54 pm-------29.26-- 32.2----
2024-04-22 08:48 pm-------29.26-- 32.2----
2024-04-22 08:42 pm-------29.25-- 32.2----
2024-04-22 08:36 pm-------29.25-- 32.2----
2024-04-22 08:30 pm-------29.24-- 32.2----
2024-04-22 08:24 pm-------29.24-- 32.2----
2024-04-22 08:18 pm-------29.24-- 32.2----
2024-04-22 08:12 pm-------29.24-- 32.2----
2024-04-22 08:06 pm-------29.23-- 32.2----
2024-04-22 08:00 pm-------29.23-0.03- 32.2----
2024-04-22 07:54 pm-------29.23-- 32.2----
2024-04-22 07:48 pm-------29.23-- 32.2----
2024-04-22 07:42 pm-------29.23-- 32.2----
2024-04-22 07:36 pm-------29.23-- 32.2----
2024-04-22 07:30 pm-------29.23-- 32.2----
2024-04-22 07:24 pm-------29.23-- 32.2----
2024-04-22 07:18 pm-------29.23-- 32.2----
2024-04-22 07:12 pm-------29.23-- 32.2----
2024-04-22 07:06 pm-------29.23-- 32.2----
2024-04-22 07:00 pm-------29.23-0.06- 32.2----
2024-04-22 06:54 pm-------29.23-- 32.2----
2024-04-22 06:48 pm-------29.23-- 32.2----
2024-04-22 06:42 pm-------29.23-- 32.2----
2024-04-22 06:36 pm-------29.23-- 32.2----
2024-04-22 06:30 pm-------29.23-- 32.2----
2024-04-22 06:24 pm-------29.23-- 32.2----
2024-04-22 06:18 pm-------29.23-- 32.2----
2024-04-22 06:12 pm-------29.23-- 32.2----
2024-04-22 06:06 pm-------29.23-- 32.2----
2024-04-22 06:00 pm-------29.23-0.09- 32.2----
2024-04-22 05:54 pm-------29.24-- 32.2----
2024-04-22 05:48 pm-------29.24-- 32.2----
2024-04-22 05:42 pm-------29.25-- 32.2----
2024-04-22 05:36 pm-------29.25-- 32.2----
2024-04-22 05:30 pm-------29.25-- 32.2----
2024-04-22 05:24 pm-------29.25-- 32.2----
2024-04-22 05:18 pm-------29.25-- 32.2----
2024-04-22 05:12 pm-------29.26-- 32.2----
2024-04-22 05:06 pm-------29.26-- 32.2----
2024-04-22 05:00 pm-------29.26-0.09- 32.2----
2024-04-22 04:54 pm-------29.26-- 32.2----
2024-04-22 04:48 pm-------29.26-- 32.2----
2024-04-22 04:42 pm-------29.27-- 32.2----
2024-04-22 04:36 pm-------29.27-- 32.2----
2024-04-22 04:30 pm-------29.28-- 32.2----
2024-04-22 04:24 pm-------29.28-- 32.2----
2024-04-22 04:18 pm-------29.28-- 32.2----
2024-04-22 04:12 pm-------29.28-- 32.2----
2024-04-22 04:06 pm-------29.28-- 32.4----
2024-04-22 04:00 pm-------29.29-0.09- 32.4----
2024-04-22 03:54 pm-------29.29-- 32.4----
2024-04-22 03:48 pm-------29.29-- 32.4----
2024-04-22 03:42 pm-------29.30-- 32.4----
2024-04-22 03:36 pm-------29.30-- 32.2----
2024-04-22 03:30 pm-------29.30-- 32.2----
2024-04-22 03:24 pm-------29.31-- 32.2----
2024-04-22 03:18 pm-------29.31-- 32.2----
2024-04-22 03:12 pm-------29.31-- 32.2----
2024-04-22 03:06 pm-------29.32-- 32.2----
2024-04-22 03:00 pm-------29.32-0.10- 32.2----
2024-04-22 02:54 pm-------29.32-- 32.2----
2024-04-22 02:48 pm-------29.33-- 32.2----
2024-04-22 02:42 pm-------29.33-- 32.2----
2024-04-22 02:36 pm-------29.34-- 32.2----
2024-04-22 02:30 pm-------29.34-- 32.2----
2024-04-22 02:24 pm-------29.34-- 32.2----
2024-04-22 02:18 pm---------- 32.2----
2024-04-22 02:12 pm---------- 32.2----
2024-04-22 02:06 pm---------- 32.2----
2024-04-22 02:00 pm-------29.35-0.09- 32.2----
2024-04-22 01:54 pm-------29.35-- 32.2----
2024-04-22 01:48 pm-------29.36-- 32.2----
2024-04-22 01:42 pm-------29.36-- 32.2----
2024-04-22 01:36 pm-------29.36-- 32.2----
2024-04-22 01:30 pm-------29.37-- 32.2----
2024-04-22 01:24 pm-------29.37-- 32.2----
2024-04-22 01:18 pm-------29.37-- 32.2----
2024-04-22 01:12 pm-------29.38-- 32.2----
2024-04-22 01:06 pm-------29.39-- 32.2----
2024-04-22 01:00 pm-------29.39-0.07- 32.2----
2024-04-22 12:54 pm-------29.39-- 32.2----
2024-04-22 12:48 pm-------29.39-- 32.2----
2024-04-22 12:42 pm-------29.40-- 32.2----
2024-04-22 12:36 pm-------29.40-- 32.2----
2024-04-22 12:30 pm-------29.40-- 32.2----
2024-04-22 12:24 pm-------29.41-- 32.2----
2024-04-22 12:18 pm-------29.41-- 32.2----
2024-04-22 12:12 pm-------29.42-- 32.2----
2024-04-22 12:06 pm-------29.42-- 32.2----
2024-04-22 12:00 pm-------29.42-0.06- 32.2----
2024-04-22 11:54 am-------29.42-- 32.2----
2024-04-22 11:48 am-------29.42-- 32.2----
2024-04-22 11:42 am-------29.43-- 32.2----
2024-04-22 11:36 am-------29.43-- 32.2----
2024-04-22 11:30 am-------29.43-- 32.2----
2024-04-22 11:24 am-------29.43-- 32.2----
2024-04-22 11:18 am-------29.43-- 32.2----
2024-04-22 11:12 am-------29.44-- 32.2----
2024-04-22 11:06 am-------29.44-- 32.0----
2024-04-22 11:00 am-------29.44-0.06- 32.0----
2024-04-22 10:54 am-------29.44-- 32.0----
2024-04-22 10:48 am-------29.44-- 32.0----
2024-04-22 10:42 am-------29.45-- 32.0----
2024-04-22 10:36 am-------29.45-- 32.0----
2024-04-22 10:30 am-------29.45-- 32.0----
2024-04-22 10:24 am-------29.45-- 32.0----
2024-04-22 10:18 am-------29.46-- 32.0----
2024-04-22 10:12 am-------29.46-- 32.0----
2024-04-22 10:06 am-------29.46-- 32.0----
2024-04-22 10:00 am-------29.46-0.06- 32.0----
2024-04-22 09:54 am-------29.46-- 32.0----
2024-04-22 09:48 am-------29.47-- 32.0----
2024-04-22 09:42 am-------29.47-- 32.0----
2024-04-22 09:36 am-------29.47-- 32.0----
2024-04-22 09:30 am-------29.47-- 32.0----
2024-04-22 09:24 am-------29.47-- 32.0----
2024-04-22 09:18 am-------29.47-- 32.0----
2024-04-22 09:12 am-------29.47-- 32.0----
2024-04-22 09:06 am-------29.48-- 32.0----
2024-04-22 09:00 am-------29.48-0.07- 31.8----
2024-04-22 08:54 am-------29.48-- 31.8----
2024-04-22 08:48 am-------29.48-- 31.8----
2024-04-22 08:42 am-------29.49-- 31.8----
2024-04-22 08:36 am-------29.49-- 31.8----
2024-04-22 08:30 am-------29.49-- 31.8----
2024-04-22 08:24 am-------29.49-- 31.8----
2024-04-22 08:18 am-------29.49-- 31.8----
2024-04-22 08:12 am-------29.49-- 31.8----
2024-04-22 08:06 am-------29.50-- 31.8----
2024-04-22 08:00 am-------29.50-0.08- 31.8----
2024-04-22 07:54 am-------29.50-- 31.8----
2024-04-22 07:48 am-------29.50-- 31.8----
2024-04-22 07:42 am-------29.50-- 31.8----
2024-04-22 07:36 am-------29.51-- 31.8----
2024-04-22 07:30 am-------29.51-- 31.8----
2024-04-22 07:24 am-------29.51-- 31.8----
2024-04-22 07:18 am-------29.51-- 31.8----
2024-04-22 07:12 am-------29.52-- 31.8----
2024-04-22 07:06 am-------29.52-- 31.8----
2024-04-22 07:00 am-------29.52-0.09- 31.8----
2024-04-22 06:54 am-------29.52-- 31.8----
2024-04-22 06:48 am-------29.52-- 31.8----
2024-04-22 06:42 am-------29.53-- 31.8----
2024-04-22 06:36 am-------29.53-- 31.8----
2024-04-22 06:30 am-------29.53-- 31.8----
2024-04-22 06:24 am-------29.53-- 31.8----
2024-04-22 06:18 am-------29.54-- 31.8----
2024-04-22 06:12 am-------29.54-- 31.8----
2024-04-22 06:06 am-------29.54-- 31.8----
2024-04-22 06:00 am-------29.54-0.09- 31.8----
2024-04-22 05:54 am-------29.55-- 31.8----
2024-04-22 05:48 am-------29.55-- 31.8----
2024-04-22 05:42 am-------29.55-- 31.8----
2024-04-22 05:36 am-------29.56-- 31.8----
2024-04-22 05:30 am-------29.56-- 31.8----
2024-04-22 05:24 am-------29.56-- 31.8----
2024-04-22 05:18 am-------29.57-- 31.8----
2024-04-22 05:12 am-------29.57-- 31.8----
2024-04-22 05:06 am-------29.57-- 31.8----
2024-04-22 05:00 am-------29.57-0.09- 31.8----
2024-04-22 04:54 am-------29.58-- 31.8----
2024-04-22 04:48 am-------29.58-- 31.8----
2024-04-22 04:42 am-------29.59-- 31.8----
2024-04-22 04:36 am-------29.59-- 31.8----
2024-04-22 04:30 am-------29.59-- 31.8----
2024-04-22 04:24 am-------29.59-- 31.8----
2024-04-22 04:18 am-------29.59-- 31.8----
2024-04-22 04:12 am-------29.60-- 31.8----
2024-04-22 04:06 am-------29.60-- 31.8----
2024-04-22 04:00 am-------29.60-0.08- 31.8----
2024-04-22 03:54 am-------29.61-- 31.8----
2024-04-22 03:48 am-------29.61-- 31.8----
2024-04-22 03:42 am-------29.61-- 31.8----
2024-04-22 03:36 am-------29.62-- 31.8----
2024-04-22 03:30 am-------29.62-- 31.8----
2024-04-22 03:24 am-------29.62-- 31.8----
2024-04-22 03:18 am-------29.62-- 31.8----
2024-04-22 03:12 am-------29.63-- 31.8----
2024-04-22 03:06 am-------29.63-- 31.8----
2024-04-22 03:00 am-------29.64-0.08- 31.8----
2024-04-22 02:54 am-------29.64-- 31.8----
2024-04-22 02:48 am-------29.64-- 31.8----
2024-04-22 02:42 am-------29.65-- 31.8----
2024-04-22 02:36 am-------29.65-- 31.8----
2024-04-22 02:30 am-------29.65-- 31.8----
2024-04-22 02:24 am-------29.65-- 31.8----
2024-04-22 02:18 am-------29.66-- 31.8----
2024-04-22 02:12 am-------29.66-- 31.8----
2024-04-22 02:06 am-------29.66-- 31.8----
2024-04-22 02:00 am-------29.67-0.07- 31.8----
2024-04-22 01:54 am-------29.67-- 31.8----
2024-04-22 01:48 am-------29.67-- 31.8----
2024-04-22 01:42 am-------29.67-- 31.8----
2024-04-22 01:36 am-------29.68-- 31.8----
2024-04-22 01:30 am-------29.68-- 31.8----
2024-04-22 01:24 am-------29.68-- 31.8----
2024-04-22 01:18 am-------29.68-- 31.8----
2024-04-22 01:12 am-------29.68-- 31.8----
2024-04-22 01:06 am-------29.69-- 31.8----
2024-04-22 01:00 am-------29.69-0.06- 31.8----
2024-04-22 12:54 am-------29.69-- 31.8----
2024-04-22 12:48 am-------29.69-- 31.8----
2024-04-22 12:42 am-------29.70-- 31.8----
2024-04-22 12:36 am-------29.70-- 31.8----
2024-04-22 12:30 am-------29.70-- 31.8----
2024-04-22 12:24 am-------29.70-- 31.8----
2024-04-22 12:18 am-------29.70-- 31.8----
2024-04-22 12:12 am-------29.71-- 31.8----
2024-04-22 12:06 am-------29.71-- 31.8----
2024-04-22 12:00 am-------29.71-0.05- 31.8----
2024-04-21 11:54 pm-------29.72-- 31.8----
2024-04-21 11:48 pm-------29.72-- 31.8----
2024-04-21 11:42 pm-------29.72-- 31.8----
2024-04-21 11:36 pm-------29.72-- 31.8----
2024-04-21 11:30 pm-------29.72-- 31.8----
2024-04-21 11:24 pm-------29.73-- 31.8----
2024-04-21 11:18 pm-------29.73-- 31.8----
2024-04-21 11:12 pm-------29.73-- 31.8----
2024-04-21 11:06 pm-------29.73-- 31.8----
2024-04-21 11:00 pm-------29.73-0.03- 31.8----
2024-04-21 10:54 pm-------29.74-- 31.8----
2024-04-21 10:48 pm-------29.74-- 31.8----
2024-04-21 10:42 pm-------29.74-- 31.8----
2024-04-21 10:36 pm-------29.74-- 31.8----
2024-04-21 10:30 pm-------29.75-- 31.8----
2024-04-21 10:24 pm-------29.75-- 31.8----
2024-04-21 10:18 pm-------29.75-- 31.8----
2024-04-21 10:12 pm-------29.75-- 31.8----
2024-04-21 10:06 pm-------29.75-- 31.8----
2024-04-21 10:00 pm-------29.75-0.03- 31.8----
2024-04-21 09:54 pm-------29.75-- 31.8----